This is the latest recevied weather packets stored in our database for station/object WD9GET. If no packets are shown the sender has not sent any weather packets the latest 1 day(s).
| Time | Temp. | Humidity | Pressure | Rain* | Wind** | Luminosity | Snow |
|---|---|---|---|---|---|---|---|
| 1778073018 | 24.44° C | 99% | 1009.5 hPa | 0 mm | - | 21 W/m² | - |
| 1778072744 | 24.44° C | 99% | 1009.6 hPa | 0 mm | - | 34 W/m² | - |
| 1778072684 | 24.44° C | 99% | 1009.6 hPa | 0 mm | - | 39 W/m² | - |
| 1778072624 | 24.44° C | 99% | 1009.6 hPa | 0 mm | - | 41 W/m² | - |
| 1778072384 | 24.44° C | 99% | 1009.6 hPa | 0 mm | - | 43 W/m² | - |
| 1778071830 | 24.44° C | 99% | 1009.4 hPa | 0 mm | - | 49 W/m² | - |
| 1778071709 | 24.44° C | 99% | 1009.3 hPa | 0 mm | - | 43 W/m² | - |
| 1778071649 | 24.44° C | 99% | 1009.3 hPa | 0 mm | - | 39 W/m² | - |
| 1778071589 | 24.44° C | 99% | 1009.4 hPa | 0 mm | - | 44 W/m² | - |
| 1778071528 | 24.44° C | 99% | 1009.3 hPa | 0 mm | - | 44 W/m² | - |
| 1778071454 | 24.44° C | 99% | 1009.3 hPa | 0 mm | - | 41 W/m² | - |
| 1778071394 | 24.44° C | 99% | 1009.3 hPa | 0 mm | - | 40 W/m² | - |
| 1778071334 | 24.44° C | 99% | 1009.3 hPa | 0 mm | - | 36 W/m² | - |
| 1778071274 | 24.44° C | 99% | 1009.3 hPa | 0.25 mm | - | 31 W/m² | - |
| 1778071214 | 24.44° C | 99% | 1009.3 hPa | 0.25 mm | - | 26 W/m² | - |
| 1778071079 | 24.44° C | 99% | 1009.3 hPa | 0.25 mm | - | 16 W/m² | - |
| 1778071019 | 24.44° C | 99% | 1009.3 hPa | 0.25 mm | - | 16 W/m² | - |
| 1778070513 | 24.44° C | 99% | 1009.3 hPa | 0.25 mm | - | 13 W/m² | - |
| 1778070328 | 24.44° C | 99% | 1009.3 hPa | 0.25 mm | - | 17 W/m² | - |
| 1778070149 | 24.44° C | 99% | 1009.2 hPa | 0.25 mm | - | 15 W/m² | - |
| 1778070001 | 24.44° C | 99% | 1009.2 hPa | 0.25 mm | - | 14 W/m² | - |
| 1778069940 | 24.44° C | 99% | 1009.2 hPa | 0.25 mm | - | 11 W/m² | - |
| 1778069880 | 24.44° C | 99% | 1009.3 hPa | 0.25 mm | - | 9 W/m² | - |
| 1778069760 | 24.44° C | 99% | 1009.2 hPa | 0.25 mm | - | 6 W/m² | - |
| 1778069700 | 24.44° C | 99% | 1009.2 hPa | 0.25 mm | - | 6 W/m² | - |
* Rain latest hour (hover to see other rain measurements)
** Current wind speed in m/s (hover to see current wind gust speed)